Location: Ferintosh
(52.7647°N, 112.9692°W)
Time: 15:17:41
(UTC+00:00)

Transit 2A - Pass Details

Date: 21 May 2024
Orbit: 592 x 959 km, 66.7° (Epoch: 23 June)

Event Time Altitude Azimuth Distance (km) Brightness Sun altitude
Rises 07:02:39 0° 216° (SW) 2,939 - -16.7°
Reaches altitude 10° 07:04:49 10° 216° (SW) 2,074 - -16.7°
Exits shadow 07:06:26 22° 215° (SW) 1,461 7.0 -16.8°
Maximum altitude 07:09:31 85° 129° (SE) 717 5.8 -16.8°
Drops below altitude 10° 07:14:48 10° 40° (NE) 2,316 9.1 -16.9°
Sets 07:17:20 0° 41° (NE) 3,310 10.0 -16.9°
